When you browse on this site, cookies collect data to enhance your experience and personalize the content and advertising you see.
Visit our Privacy Policy to learn more. By continuing to use the site, you agree to this use of cookies and data.
  • In Netherlands
  • List of Countries
  • For 7 days
  • Water Temperature
  • Satellite Maps
  • Weather Map
  • Weather Widgets
  • user-avatar
    Login

    Hourly Weather Mochudi

    Today, 16 July, Tuesday

    Time Temperature Precipitation Wind Pressure Humidity
    00:00 +12°C° 0 mm 1 mps 684 mmHg 42%
    01:00 +11°C° 0 mm 1 mps 684 mmHg 44%
    02:00 +10°C° 0 mm 1 mps 684 mmHg 46%
    03:00 +10°C° 0 mm 1 mps 684 mmHg 48%
    04:00 +9°C° 0 mm 1 mps 684 mmHg 50%
    05:00 +8°C° 0 mm 1 mps 684 mmHg 52%
    06:00 +9°C° 0 mm 1 mps 684 mmHg 51%
    07:00 +10°C° 0 mm 1 mps 685 mmHg 50%
    08:00 +11°C° 0 mm 1 mps 686 mmHg 49%
    09:00 +14°C° 0 mm 2 mps 686 mmHg 43%
    10:00 +17°C° 0 mm 3 mps 687 mmHg 37%
    11:00 +21°C° 0 mm 4 mps 687 mmHg 31%
    12:00 +22°C° 0 mm 4 mps 687 mmHg 26%
    13:00 +23°C° 0 mm 4 mps 686 mmHg 22%
    14:00 +26°C° 0 mm 4 mps 686 mmHg 17%
    15:00 +25°C° 0 mm 4 mps 685 mmHg 17%
    16:00 +25°C° 0 mm 3 mps 685 mmHg 18%
    17:00 +24°C° 0 mm 2 mps 685 mmHg 18%
    18:00 +20°C° 0 mm 2 mps 685 mmHg 22%
    19:00 +18°C° 0 mm 2 mps 685 mmHg 26%
    20:00 +15°C° 0 mm 2 mps 684 mmHg 29%
    21:00 +14°C° 0 mm 2 mps 684 mmHg 32%
    22:00 +14°C° 0 mm 2 mps 685 mmHg 34%
    23:00 +13°C° 0 mm 2 mps 685 mmHg 37%

    Tomorrow, 17 July, Wednesday

    Time Temperature Precipitation Wind Pressure Humidity
    00:00 +12°C° 0 mm 1 mps 684 mmHg 39%
    01:00 +11°C° 0 mm 1 mps 684 mmHg 41%
    02:00 +10°C° 0 mm 1 mps 684 mmHg 44%
    03:00 +10°C° 0 mm 1 mps 684 mmHg 46%
    04:00 +9°C° 0 mm 1 mps 684 mmHg 48%
    05:00 +8°C° 0 mm 1 mps 684 mmHg 50%
    06:00 +9°C° 0 mm 1 mps 685 mmHg 49%
    07:00 +10°C° 0 mm 1 mps 685 mmHg 48%
    08:00 +11°C° 0 mm 1 mps 686 mmHg 46%
    09:00 +14°C° 0 mm 2 mps 686 mmHg 41%
    10:00 +17°C° 0 mm 2 mps 687 mmHg 35%
    11:00 +20°C° 0 mm 3 mps 687 mmHg 29%
    12:00 +22°C° 0 mm 3 mps 687 mmHg 25%
    13:00 +25°C° 0 mm 2 mps 686 mmHg 22%
    14:00 +26°C° 0 mm 2 mps 686 mmHg 18%
    15:00 +26°C° 0 mm 2 mps 685 mmHg 18%
    16:00 +25°C° 0 mm 1 mps 685 mmHg 18%
    17:00 +24°C° 0 mm 1 mps 685 mmHg 18%
    18:00 +22°C° 0 mm 1 mps 684 mmHg 21%
    19:00 +20°C° 0 mm 1 mps 684 mmHg 25%
    20:00 +17°C° 0 mm 2 mps 684 mmHg 28%
    21:00 +16°C° 0 mm 1 mps 684 mmHg 30%
    22:00 +15°C° 0 mm 1 mps 684 mmHg 33%
    23:00 +14°C° 0 mm 1 mps 684 mmHg 35%

    Day after tomorrow, 18 July, Thursday

    Time Temperature Precipitation Wind Pressure Humidity
    00:00 +13°C° 0 mm 1 mps 684 mmHg 37%
    01:00 +11°C° 0 mm 0 mps 684 mmHg 39%
    02:00 +11°C° 0 mm 0 mps 683 mmHg 40%
    03:00 +10°C° 0 mm 0 mps 683 mmHg 42%
    04:00 +10°C° 0 mm 0 mps 683 mmHg 43%
    05:00 +9°C° 0 mm 0 mps 683 mmHg 44%
    06:00 +10°C° 0 mm 0 mps 683 mmHg 42%
    07:00 +11°C° 0 mm 0 mps 684 mmHg 39%
    08:00 +12°C° 0 mm 0 mps 685 mmHg 37%
    09:00 +16°C° 0 mm 0 mps 685 mmHg 31%
    10:00 +21°C° 0 mm 1 mps 686 mmHg 24%
    11:00 +25°C° 0 mm 1 mps 686 mmHg 18%
    12:00 +24°C° 0 mm 0 mps 686 mmHg 16%
    13:00 +26°C° 0 mm 0 mps 685 mmHg 14%
    14:00 +27°C° 0 mm 0 mps 685 mmHg 12%
    15:00 +26°C° 0 mm 0 mps 684 mmHg 13%
    16:00 +27°C° 0 mm 1 mps 683 mmHg 14%
    17:00 +25°C° 0 mm 1 mps 683 mmHg 14%
    18:00 +23°C° 0 mm 1 mps 683 mmHg 17%
    19:00 +21°C° 0 mm 1 mps 683 mmHg 20%
    20:00 +18°C° 0 mm 1 mps 683 mmHg 22%
    21:00 +16°C° 0 mm 2 mps 683 mmHg 23%
    22:00 +16°C° 0 mm 2 mps 683 mmHg 25%
    23:00 +15°C° 0 mm 2 mps 683 mmHg 26%

    19 July, Friday

    Time Temperature Precipitation Wind Pressure Humidity
    00:00 +14°C° 0 mm 2 mps 682 mmHg 27%
    01:00 +14°C° 0 mm 2 mps 682 mmHg 27%
    02:00 +14°C° 0 mm 2 mps 682 mmHg 28%
    03:00 +13°C° 0 mm 2 mps 682 mmHg 29%
    04:00 +12°C° 0 mm 1 mps 681 mmHg 30%
    05:00 +12°C° 0 mm 1 mps 681 mmHg 31%
    06:00 +12°C° 0 mm 1 mps 682 mmHg 29%
    07:00 +13°C° 0 mm 1 mps 682 mmHg 28%
    08:00 +14°C° 0 mm 1 mps 683 mmHg 27%
    09:00 +19°C° 0 mm 1 mps 684 mmHg 22%
    10:00 +22°C° 0 mm 1 mps 684 mmHg 17%
    11:00 +26°C° 0 mm 1 mps 685 mmHg 12%
    12:00 +27°C° 0 mm 2 mps 685 mmHg 11%
    13:00 +29°C° 0 mm 2 mps 684 mmHg 9%
    14:00 +30°C° 0 mm 3 mps 684 mmHg 8%
    15:00 +29°C° 0 mm 3 mps 683 mmHg 8%
    16:00 +28°C° 0 mm 3 mps 683 mmHg 9%
    17:00 +28°C° 0 mm 3 mps 683 mmHg 9%
    18:00 +25°C° 0 mm 3 mps 682 mmHg 11%
    19:00 +21°C° 0 mm 3 mps 682 mmHg 14%
    20:00 +18°C° 0 mm 3 mps 682 mmHg 16%
    21:00 +17°C° 0 mm 3 mps 682 mmHg 17%
    22:00 +16°C° 0 mm 3 mps 682 mmHg 18%
    23:00 +16°C° 0 mm 3 mps 682 mmHg 19%

    20 July, Saturday

    Time Temperature Precipitation Wind Pressure Humidity
    00:00 +15°C° 0 mm 2 mps 682 mmHg 21%
    01:00 +14°C° 0 mm 2 mps 682 mmHg 22%
    02:00 +13°C° 0 mm 2 mps 681 mmHg 23%
    03:00 +12°C° 0 mm 2 mps 681 mmHg 25%
    04:00 +11°C° 0 mm 1 mps 681 mmHg 26%
    05:00 +10°C° 0 mm 1 mps 681 mmHg 27%
    06:00 +11°C° 0 mm 1 mps 681 mmHg 27%
    07:00 +12°C° 0 mm 1 mps 682 mmHg 27%
    08:00 +13°C° 0 mm 1 mps 683 mmHg 26%
    09:00 +16°C° 0 mm 1 mps 683 mmHg 24%
    10:00 +20°C° 0 mm 2 mps 684 mmHg 21%
    11:00 +24°C° 0 mm 2 mps 685 mmHg 19%
    12:00 +26°C° 0 mm 2 mps 684 mmHg 17%
    13:00 +27°C° 0 mm 1 mps 684 mmHg 15%
    14:00 +29°C° 0 mm 1 mps 683 mmHg 12%
    15:00 +28°C° 0 mm 1 mps 683 mmHg 13%
    16:00 +27°C° 0 mm 1 mps 683 mmHg 14%
    17:00 +26°C° 0 mm 1 mps 682 mmHg 15%
    18:00 +23°C° 0 mm 1 mps 682 mmHg 17%
    19:00 +21°C° 0 mm 1 mps 682 mmHg 20%
    20:00 +18°C° 0 mm 1 mps 682 mmHg 23%
    21:00 +18°C° 0 mm 1 mps 682 mmHg 24%
    22:00 +16°C° 0 mm 2 mps 683 mmHg 25%
    23:00 +15°C° 0 mm 2 mps 683 mmHg 26%

    21 July, Sunday

    Time Temperature Precipitation Wind Pressure Humidity
    00:00 +14°C° 0 mm 2 mps 683 mmHg 27%
    01:00 +13°C° 0 mm 2 mps 682 mmHg 28%
    02:00 +12°C° 0 mm 2 mps 682 mmHg 30%
    03:00 +10°C° 0 mm 2 mps 682 mmHg 31%
    04:00 +10°C° 0 mm 2 mps 682 mmHg 31%
    05:00 +9°C° 0 mm 2 mps 682 mmHg 32%
    06:00 +9°C° 0 mm 2 mps 683 mmHg 38%
    07:00 +10°C° 0 mm 3 mps 684 mmHg 44%
    08:00 +10°C° 0 mm 3 mps 685 mmHg 49%
    09:00 +13°C° 0 mm 4 mps 685 mmHg 50%
    10:00 +16°C° 0 mm 5 mps 686 mmHg 50%
    11:00 +19°C° 0 mm 6 mps 687 mmHg 50%
    12:00 +20°C° 0 mm 6 mps 686 mmHg 50%
    13:00 +20°C° 0 mm 6 mps 686 mmHg 50%
    14:00 +21°C° 0 mm 6 mps 685 mmHg 50%
    15:00 +20°C° 0 mm 6 mps 685 mmHg 49%
    16:00 +20°C° 0 mm 5 mps 685 mmHg 48%
    17:00 +20°C° 0 mm 4 mps 684 mmHg 47%
    18:00 +18°C° 0 mm 4 mps 685 mmHg 55%
    19:00 +16°C° 0 mm 3 mps 685 mmHg 62%
    20:00 +12°C° 0 mm 3 mps 685 mmHg 70%
    21:00 +12°C° 0 mm 3 mps 685 mmHg 75%
    22:00 +11°C° 0 mm 3 mps 685 mmHg 81%
    23:00 +10°C° 0 mm 3 mps 685 mmHg 86%
    Show more